| time (UTC) | temp F | wind direction | speed MPH | gust MPH | rain 1hr in | rain 24hr in | rain mn in | humidity % | barometer mb |
| 20260510111533 | 69 | 0 | 0.0 | 0.0 | 0.00 | 0.01 | 0.00 | 84 | 1010.7 |
| 20260510110034 | 69 | 212 | 0.0 | 1.0 | 0.00 | 0.01 | 0.00 | 84 | 1010.6 |
| 20260510104532 | 69 | 0 | 0.0 | 1.0 | 0.00 | 0.01 | 0.00 | 84 | 1010.7 |
| 20260510103033 | 69 | 0 | 0.0 | 0.0 | 0.00 | 0.01 | 0.00 | 85 | 1010.6 |
| 20260510101532 | 70 | 0 | 0.0 | 2.0 | 0.00 | 0.01 | 0.00 | 84 | 1010.4 |
| 20260510100032 | 70 | 0 | 0.0 | 0.0 | 0.00 | 0.01 | 0.00 | 85 | 1010.1 |
| 20260510094533 | 70 | 0 | 0.0 | 0.0 | 0.00 | 0.01 | 0.00 | 85 | 1010.4 |
| 20260510093032 | 71 | 0 | 0.0 | 2.0 | 0.00 | 0.01 | 0.00 | 84 | 1010.0 |
| 20260510091533 | 71 | 0 | 0.0 | 2.0 | 0.00 | 0.01 | 0.00 | 84 | 1010.1 |
| 20260510090033 | 71 | 177 | 0.0 | 3.0 | 0.00 | 0.01 | 0.00 | 84 | 1009.8 |
| 20260510084540 | 71 | 0 | 0.0 | 3.0 | 0.00 | 0.01 | 0.00 | 84 | 1010.0 |
| 20260510083033 | 71 | 0 | 0.0 | 4.0 | 0.00 | 0.01 | 0.00 | 85 | 1010.2 |
| 20260510081540 | 71 | 214 | 0.0 | 2.0 | 0.00 | 0.01 | 0.00 | 86 | 1010.5 |
| 20260510080033 | 71 | 0 | 0.0 | 0.0 | 0.00 | 0.01 | 0.00 | 85 | 1010.6 |
| 20260510074533 | 71 | 0 | 0.0 | 1.0 | 0.00 | 0.01 | 0.00 | 85 | 1010.7 |
| 20260510073035 | 71 | 0 | 0.0 | 1.0 | 0.00 | 0.01 | 0.00 | 85 | 1010.5 |
| 20260510071531 | 72 | 0 | 0.0 | 1.0 | 0.00 | 0.01 | 0.00 | 84 | 1010.5 |
| 20260510070034 | 72 | 0 | 0.0 | 1.0 | 0.00 | 0.01 | 0.00 | 83 | 1010.5 |
| 20260510064541 | 73 | 0 | 0.0 | 0.0 | 0.00 | 0.01 | 0.00 | 83 | 1010.5 |
| 20260510063039 | 73 | 0 | 0.0 | 0.0 | 0.00 | 0.01 | 0.00 | 81 | 1010.4 |
| 20260510061532 | 74 | 0 | 0.0 | 1.0 | 0.00 | 0.01 | 0.00 | 81 | 1010.4 |
| 20260510060033 | 74 | 0 | 0.0 | 1.0 | 0.00 | 0.01 | 0.00 | 81 | 1010.5 |
| 20260510054533 | 74 | 0 | 0.0 | 1.0 | 0.00 | 0.01 | 0.00 | 81 | 1010.5 |
| 20260510053036 | 74 | 0 | 0.0 | 0.0 | 0.00 | 0.01 | 0.00 | 81 | 1010.4 |
| 20260510051537 | 75 | 0 | 0.0 | 0.0 | 0.00 | 0.01 | 0.00 | 81 | 1010.4 |
| 20260510050032 | 75 | 0 | 0.0 | 0.0 | 0.00 | 0.01 | 0.00 | 81 | 1010.3 |
| 20260510044544 | 75 | 0 | 0.0 | 0.0 | 0.00 | 0.01 | 0.01 | 81 | 1010.3 |
| 20260510043035 | 76 | 0 | 0.0 | 1.0 | 0.00 | 0.01 | 0.01 | 80 | 1010.2 |
| 20260510041531 | 76 | 0 | 0.0 | 1.0 | 0.00 | 0.01 | 0.01 | 79 | 1010.3 |
| 20260510040033 | 77 | 0 | 0.0 | 0.0 | 0.00 | 0.01 | 0.01 | 78 | 1010.1 |
| 20260510034535 | 77 | 0 | 0.0 | 0.0 | 0.00 | 0.01 | 0.01 | 77 | 1010.1 |
| 20260510033032 | 78 | 0 | 0.0 | 1.0 | 0.00 | 0.01 | 0.01 | 76 | 1010.0 |
| 20260510031534 | 78 | 0 | 0.0 | 0.0 | 0.00 | 0.01 | 0.01 | 73 | 1009.8 |
| 20260510030032 | 78 | 0 | 0.0 | 0.0 | 0.00 | 0.01 | 0.01 | 71 | 1009.5 |
| 20260510024538 | 79 | 0 | 0.0 | 0.0 | 0.00 | 0.01 | 0.01 | 70 | 1009.3 |
| 20260510023033 | 79 | 207 | 0.0 | 1.0 | 0.00 | 0.01 | 0.01 | 67 | 1009.1 |
| 20260510021540 | 79 | 0 | 0.0 | 0.0 | 0.00 | 0.01 | 0.01 | 65 | 1009.0 |
| 20260510020040 | 80 | 0 | 0.0 | 2.0 | 0.00 | 0.01 | 0.01 | 63 | 1008.6 |
| 20260510014537 | 81 | 0 | 0.0 | 0.0 | 0.00 | 0.01 | 0.01 | 62 | 1008.5 |
| 20260510013033 | 82 | 0 | 0.0 | 1.0 | 0.00 | 0.01 | 0.01 | 60 | 1008.5 |
| 20260510011532 | 82 | 0 | 0.0 | 1.0 | 0.00 | 0.01 | 0.01 | 58 | 1008.3 |
| 20260510010039 | 83 | 0 | 0.0 | 1.0 | 0.00 | 0.01 | 0.01 | 56 | 1008.2 |
| 20260510004540 | 84 | 0 | 0.0 | 2.0 | 0.00 | 0.01 | 0.01 | 53 | 1008.1 |
| 20260510003032 | 85 | 246 | 0.0 | 1.0 | 0.00 | 0.01 | 0.01 | 50 | 1008.0 |
| 20260510001533 | 86 | 0 | 0.0 | 2.0 | 0.00 | 0.01 | 0.01 | 47 | 1007.8 |
| 20260510000034 | 88 | 0 | 0.0 | 4.0 | 0.00 | 0.01 | 0.01 | 48 | 1007.6 |
| 20260509234539 | 89 | 70 | 0.0 | 2.0 | 0.00 | 0.01 | 0.01 | 47 | 1007.6 |
| 20260509233034 | 88 | 0 | 1.0 | 4.0 | 0.00 | 0.01 | 0.01 | 49 | 1007.4 |
| 20260509231539 | 89 | 0 | 0.0 | 2.0 | 0.00 | 0.01 | 0.01 | 49 | 1007.4 |
| 20260509230040 | 89 | 0 | 1.0 | 5.0 | 0.00 | 0.01 | 0.01 | 49 | 1007.4 |
| 20260509224549 | 91 | 49 | 0.0 | 3.0 | 0.00 | 0.01 | 0.01 | 45 | 1007.3 |
| 20260509223034 | 92 | 0 | 0.0 | 3.0 | 0.00 | 0.01 | 0.01 | 48 | 1007.3 |
| 20260509221535 | 93 | 0 | 0.0 | 1.0 | 0.00 | 0.01 | 0.01 | 41 | 1007.2 |
| 20260509220040 | 92 | 65 | 0.0 | 3.0 | 0.00 | 0.01 | 0.01 | 44 | 1007.2 |
| 20260509214539 | 91 | 0 | 0.0 | 5.0 | 0.00 | 0.01 | 0.01 | 43 | 1007.5 |
| 20260509213033 | 91 | 47 | 0.0 | 5.0 | 0.00 | 0.01 | 0.01 | 44 | 1007.6 |
| 20260509211533 | 94 | 0 | 0.0 | 1.0 | 0.00 | 0.01 | 0.01 | 42 | 1007.7 |
| 20260509210041 | 92 | 227 | 1.0 | 6.0 | 0.00 | 0.01 | 0.01 | 42 | 1007.7 |
| 20260509204537 | 92 | 0 | 0.0 | 4.0 | 0.00 | 0.01 | 0.01 | 45 | 1008.2 |
| 20260509203037 | 92 | 63 | 0.0 | 3.0 | 0.00 | 0.01 | 0.01 | 49 | 1008.7 |
| 20260509201544 | 90 | 0 | 0.0 | 1.0 | 0.00 | 0.01 | 0.01 | 50 | 1008.7 |
| 20260509200033 | 89 | 0 | 0.0 | 3.0 | 0.00 | 0.01 | 0.01 | 50 | 1008.8 |
| 20260509194533 | 90 | 0 | 0.0 | 7.0 | 0.00 | 0.01 | 0.01 | 49 | 1008.8 |
| 20260509193032 | 89 | 0 | 0.0 | 5.0 | 0.00 | 0.01 | 0.01 | 56 | 1009.0 |
| 20260509191539 | 88 | 0 | 0.0 | 3.0 | 0.00 | 0.01 | 0.01 | 57 | 1009.2 |
| 20260509190035 | 89 | 0 | 1.0 | 5.0 | 0.00 | 0.01 | 0.01 | 55 | 1009.6 |
| 20260509184534 | 90 | 0 | 0.0 | 3.0 | 0.00 | 0.01 | 0.01 | 56 | 1009.4 |
| 20260509183040 | 88 | 0 | 0.0 | 1.0 | 0.00 | 0.01 | 0.01 | 55 | 1010.0 |
| 20260509181534 | 86 | 0 | 0.0 | 4.0 | 0.00 | 0.01 | 0.01 | 61 | 1010.1 |
| 20260509180042 | 87 | 0 | 0.0 | 2.0 | 0.00 | 0.01 | 0.01 | 61 | 1010.7 |
| 20260509174538 | 86 | 53 | 0.0 | 1.0 | 0.00 | 0.01 | 0.01 | 64 | 1010.6 |
| 20260509173033 | 85 | 0 | 0.0 | 5.0 | 0.00 | 0.01 | 0.01 | 65 | 1011.0 |
| 20260509171546 | 85 | 0 | 0.0 | 2.0 | 0.00 | 0.01 | 0.01 | 66 | 1010.8 |
| 20260509170038 | 83 | 0 | 0.0 | 1.0 | 0.00 | 0.01 | 0.01 | 69 | 1010.8 |
| 20260509164548 | 83 | 60 | 0.0 | 1.0 | 0.00 | 0.01 | 0.01 | 69 | 1011.1 |
| 20260509163038 | 83 | 0 | 0.0 | 3.0 | 0.00 | 0.01 | 0.01 | 72 | 1011.0 |
| 20260509161536 | 82 | 219 | 0.0 | 5.0 | 0.00 | 0.01 | 0.01 | 73 | 1010.9 |
| 20260509160033 | 81 | 0 | 0.0 | 3.0 | 0.00 | 0.01 | 0.01 | 77 | 1010.9 |
| 20260509154538 | 82 | 0 | 1.0 | 11.0 | 0.00 | 0.01 | 0.01 | 76 | 1010.9 |
| 20260509153039 | 80 | 0 | 0.0 | 5.0 | 0.00 | 0.01 | 0.01 | 79 | 1010.8 |
| 20260509151538 | 79 | 0 | 0.0 | 3.0 | 0.00 | 0.01 | 0.01 | 80 | 1010.6 |
| 20260509150036 | 79 | 0 | 0.0 | 4.0 | 0.00 | 0.01 | 0.01 | 80 | 1010.5 |
| 20260509144534 | 78 | 0 | 0.0 | 3.0 | 0.00 | 0.01 | 0.01 | 83 | 1010.5 |
| 20260509143035 | 77 | 0 | 0.0 | 0.0 | 0.00 | 0.01 | 0.01 | 86 | 1010.4 |
| 20260509141534 | 76 | 0 | 0.0 | 5.0 | 0.00 | 0.01 | 0.01 | 88 | 1009.9 |
| 20260509140041 | 75 | 0 | 0.0 | 1.0 | 0.00 | 0.01 | 0.01 | 88 | 1009.8 |
| 20260509134538 | 75 | 0 | 0.0 | 4.0 | 0.00 | 0.01 | 0.01 | 89 | 1009.6 |
| 20260509133033 | 74 | 0 | 0.0 | 5.0 | 0.01 | 0.01 | 0.01 | 91 | 1009.7 |
| 20260509131545 | 73 | 216 | 0.0 | 2.0 | 0.01 | 0.01 | 0.01 | 95 | 1010.1 |
| 20260509130038 | 71 | 0 | 0.0 | 0.0 | 0.01 | 0.01 | 0.01 | 96 | 1010.4 |
| 20260509124531 | 71 | 0 | 0.0 | 0.0 | 0.01 | 0.01 | 0.01 | 97 | 1010.6 |
| 20260509123033 | 70 | 0 | 0.0 | 0.0 | 0.00 | 0.00 | 0.00 | 97 | 1010.3 |
| 20260509121533 | 70 | 0 | 0.0 | 0.0 | 0.00 | 0.00 | 0.00 | 97 | 1010.3 |
| 20260509120036 | 70 | 0 | 0.0 | 0.0 | 0.00 | 0.00 | 0.00 | 97 | 1010.5 |
| 20260509114536 | 70 | 0 | 0.0 | 0.0 | 0.00 | 0.00 | 0.00 | 97 | 1010.7 |
| 20260509113042 | 70 | 0 | 0.0 | 0.0 | 0.00 | 0.00 | 0.00 | 97 | 1010.7 |